Regional Weather Roundup
Issued by NWS

Home | Current Version | Previous Version | Graphics & Text | Print | Product List | Glossary Off
Versions: 1 2 3 4 5 6 7 8 9 10 11 12 13 14 15 16 17 18 19 20 21 22 23 24 25 26 27

000
ASUS45 KBOI 242310
RWRID

IDAHO REGIONAL WEATHER ROUNDUP
NATIONAL WEATHER SERVICE BOISE ID
500 PM MDT TUE APR 24 2018

NOTE: "FAIR" INDICATES FEW OR NO CLOUDS BELOW 12000 FEET
WITH NO SIGNIFICANT WEATHER AND/OR OBSTRUCTIONS TO VISIBILITY

IDZ012-014-250000-
SOUTHWEST IDAHO


CITY           SKY/WX    TMP DP  RH WIND       PRES   REMARKS
BOISE          SUNNY     68  29  23 S14       30.24F
CALDWELL       SUNNY     70  31  23 E13       30.23F
$$

IDZ016-017-250000-
SOUTHCENTRAL IDAHO


CITY           SKY/WX    TMP DP  RH WIND       PRES   REMARKS
BURLEY         SUNNY     62  28  27 NE12      30.27F
JEROME         SUNNY     65  27  23 NE16G22   30.27F
TWIN FALLS     SUNNY     63  30  28 E17       30.27F
$$

IDZ019>023-250000-
SOUTHEAST IDAHO


CITY           SKY/WX    TMP DP  RH WIND       PRES   REMARKS
IDAHO FALLS    MOSUNNY   58  32  37 NE6       30.33F
POCATELLO      MOSUNNY   63  34  33 NE15G23   30.29F
REXBURG        SUNNY     57  26  30 VRB5      30.33F
$$

IDZ006-010-011-018-031-032-250000-
CENTRAL IDAHO MOUNTAINS


CITY           SKY/WX    TMP DP  RH WIND       PRES   REMARKS
MCCALL         SUNNY     63  20  19 N8        30.24F
HAILEY         SUNNY     59  28  31 S5        30.33S
STANLEY          N/A     57  16  20 VRB3      30.31F
SALMON         SUNNY     62  18  18 NE5       30.30F
CHALLIS        SUNNY     64  14  14 W3        30.29F
$$

IDZ002-004-006-007-026-250000-
NORTHERN IDAHO


CITY           SKY/WX    TMP DP  RH WIND       PRES   REMARKS
LEWISTON       SUNNY     75  38  26 NE6       30.16F
LOWELL           N/A     77  29  17 VRB5      30.16F
COEUR D`ALENE  SUNNY     70  24  17 S8        30.22F
MULLAN PASS    SUNNY     55   9  16 SW6       30.32F
$$




USA.gov is the U.S. government's official web portal to all federal, state and local government web resources and services.